Retour au catalogue

DELTA 4 R/B

LostMEO
NORAD 37754·ROCKET BODY·🇺🇸 United States

Lancé Jul 16, 2011 depuis Cape Canaveral Space Force Station

Loading…

Prochains Passages (prochaines 24 heures)

TLE

PériméSource: Space-Track

Époque: Aug 6, 2026, 04:29 UTC

1 37754U 11036B   26218.18703815 -.00000081  00000-0  00000+0 0  9998
2 37754  57.0207 352.8237 0366297 127.9353  45.6154  1.90191611104607

Suivez DELTA 4 R/B en temps réel avec AllMySat

Download on the App Store